Погода в Нагарии

Израиль     33°00′46″N   35°06′16″E
темп.,
°C
ветер,
м/с
пор.,
м/с
влажн.,
%
обл.,
%
осадки,
мм/ч
давл.,
гПа
погр.,
м
9 мая, вс
вс900:00+23юв12665 0.0 101114
03:00+23юв44555 0.0 100930
06:00+24юв45515 0.0 100928
09:00+25ю335511 0.0 101015
12:00+23зюз4564100 0.0 100948
15:00+23ююз346766 0.0 100842
18:00+23зюз227991 0.0 100822
21:00+23ююз338367 0.0 100929
10 мая, пн
пн1000:00+22зсз118897 0.0 100912
03:00+22ю228662 0.0 100929
06:00+21ю56870 0.0 1010195
09:00+21ююз33860 0.0 1011151
12:00+21зюз44870 0.0 1011125
15:00+22зсз33760 0.0 1009153
18:00+23сз33770 0.0 1009127
21:00+22с33780 0.0 100938
11 мая, вт
вт1100:00+22ссв34720 0.0 100956
03:00+22ссв56760 0.0 1008162
06:00+21ссв46770 0.0 1009225
09:00+22с45710 0.0 1010131
12:00+22с67650 0.0 1010160
15:00+22с67700 0.0 1010203
18:00+22с68730 0.0 1009230
21:00+22с45730 0.0 1009113
12 мая, ср
ср1200:00+21ссв33690 0.0 101053
03:00+21с22650 0.0 100964
06:00+21ссв11621 0.0 101049
09:00+21ссз12631 0.0 1011108
12:00+22сз44690 0.0 1011244
15:00+22ссз56700 0.0 1010315
18:00+22с67750 0.0 1010272
21:00+22с56790 0.0 1010232
13 мая, чт
чт1300:00+21с34790 0.0 1011214
03:00+21с34780 0.0 1011283
06:00+21ссв23750 0.0 1011215
09:00+21сз22740 0.0 1012209
12:00+22сз45720 0.0 1012353
15:00+22ссз56720 0.0 1012412
18:00+22с67760 0.0 1011333
21:00+22с46790 0.0 1012264